Saint Bonnet de Bellac- Haute Vienne - France
Donnes mto: jeudi, 23/02/2012
Date Horaire Temp. E. Hum. E. P.atmo. Pluie Vent Direction Direction Ensoleilleme Solaire P. de rose Temp au vent Rafales
23/02/2012 00:00 0,5 C 70 % 1028,6 hPa 0,0 mm 0,0 km/h (0 Bft) E-SE 112 0 min 0 W/m -4,3 C 0,5 C 0,0 km/h (0 Bft)
23/02/2012 00:10 0,5 C 70 % 1028,4 hPa 0,0 mm 0,0 km/h (0 Bft) S-SE 157 0 min 0 W/m -4,3 C 0,5 C 0,0 km/h (0 Bft)
23/02/2012 00:20 0,8 C 70 % 1028,3 hPa 0,0 mm 0,0 km/h (0 Bft) S-SE 157 0 min 0 W/m -4,0 C 0,8 C 0,0 km/h (0 Bft)
23/02/2012 00:30 0,6 C 70 % 1028,4 hPa 0,0 mm 0,0 km/h (0 Bft) S-SE 157 0 min 0 W/m -4,2 C 0,6 C 0,0 km/h (0 Bft)
23/02/2012 00:40 0,4 C 70 % 1028,4 hPa 0,0 mm 0,0 km/h (0 Bft) S-SE 157 0 min 0 W/m -4,4 C 0,4 C 0,0 km/h (0 Bft)
23/02/2012 00:50 0,3 C 71 % 1028,5 hPa 0,0 mm 0,0 km/h (0 Bft) S-SE 157 0 min 0 W/m -4,3 C 0,3 C 0,0 km/h (0 Bft)
23/02/2012 01:00 0,1 C 71 % 1028,5 hPa 0,0 mm 0,0 km/h (0 Bft) S-SE 157 0 min 0 W/m -4,5 C 0,1 C 0,0 km/h (0 Bft)
23/02/2012 01:10 -0,2 C 71 % 1028,6 hPa 0,0 mm 0,0 km/h (0 Bft) E-SE 112 0 min 0 W/m -4,8 C -0,2 C 0,0 km/h (0 Bft)
23/02/2012 01:20 -0,4 C 72 % 1028,6 hPa 0,0 mm 0,0 km/h (0 Bft) E-SE 112 0 min 0 W/m -4,8 C -0,4 C 0,0 km/h (0 Bft)
23/02/2012 01:30 -0,4 C 72 % 1028,6 hPa 0,0 mm 0,0 km/h (0 Bft) E-SE 112 0 min 0 W/m -4,8 C -0,4 C 0,0 km/h (0 Bft)
23/02/2012 01:40 -0,7 C 72 % 1028,7 hPa 0,0 mm 0,0 km/h (0 Bft) E 90 0 min 0 W/m -5,1 C -0,7 C 0,0 km/h (0 Bft)
23/02/2012 01:50 -1,0 C 73 % 1028,7 hPa 0,0 mm 0,0 km/h (0 Bft) E 90 0 min 0 W/m -5,2 C -1,0 C 0,0 km/h (0 Bft)
23/02/2012 02:02 -1,2 C 73 % 1028,8 hPa 0,0 mm 0,0 km/h (0 Bft) E 90 0 min 0 W/m -5,4 C -1,2 C 0,0 km/h (0 Bft)
23/02/2012 02:10 -1,1 C 74 % 1028,8 hPa 0,0 mm 0,0 km/h (0 Bft) SE 135 0 min 0 W/m -5,1 C -1,1 C 0,0 km/h (0 Bft)
23/02/2012 02:20 -1,1 C 74 % 1028,8 hPa 0,0 mm 0,0 km/h (0 Bft) E-NE 67 0 min 0 W/m -5,1 C -1,1 C 0,0 km/h (0 Bft)
23/02/2012 02:30 -1,1 C 75 % 1028,6 hPa 0,0 mm 0,0 km/h (0 Bft) E-NE 67 0 min 0 W/m -5,0 C -1,1 C 0,0 km/h (0 Bft)
23/02/2012 02:40 -1,4 C 75 % 1028,6 hPa 0,0 mm 0,0 km/h (0 Bft) E-NE 67 0 min 0 W/m -5,2 C -1,4 C 0,0 km/h (0 Bft)
23/02/2012 02:50 -1,4 C 75 % 1028,6 hPa 0,0 mm 0,0 km/h (0 Bft) E-SE 112 0 min 0 W/m -5,2 C -1,4 C 0,0 km/h (0 Bft)
23/02/2012 03:00 -1,2 C 77 % 1028,5 hPa 0,0 mm 0,0 km/h (0 Bft) SE 135 0 min 0 W/m -4,7 C -1,2 C 0,0 km/h (0 Bft)
23/02/2012 03:10 -1,4 C 77 % 1028,6 hPa 0,0 mm 0,0 km/h (0 Bft) E 90 0 min 0 W/m -4,9 C -1,4 C 0,0 km/h (0 Bft)
23/02/2012 03:20 -1,4 C 78 % 1028,4 hPa 0,0 mm 0,0 km/h (0 Bft) S-SE 157 0 min 0 W/m -4,7 C -1,4 C 0,0 km/h (0 Bft)
23/02/2012 03:30 -1,4 C 77 % 1028,5 hPa 0,0 mm 0,0 km/h (0 Bft) E-NE 67 0 min 0 W/m -4,9 C -1,4 C 0,0 km/h (0 Bft)
23/02/2012 03:40 -1,4 C 78 % 1028,4 hPa 0,0 mm 0,0 km/h (0 Bft) E-NE 67 0 min 0 W/m -4,7 C -1,4 C 0,0 km/h (0 Bft)
23/02/2012 03:50 -1,1 C 78 % 1028,2 hPa 0,0 mm 0,0 km/h (0 Bft) S-SE 157 0 min 0 W/m -4,4 C -1,1 C 0,0 km/h (0 Bft)
23/02/2012 04:00 -1,1 C 78 % 1028,3 hPa 0,0 mm 0,0 km/h (0 Bft) E 90 0 min 0 W/m -4,4 C -1,1 C 0,0 km/h (0 Bft)
23/02/2012 04:10 -0,8 C 78 % 1028,2 hPa 0,0 mm 0,0 km/h (0 Bft) S-SE 157 0 min 0 W/m -4,1 C -0,8 C 0,0 km/h (0 Bft)
23/02/2012 04:20 -0,8 C 78 % 1028,3 hPa 0,0 mm 0,0 km/h (0 Bft) E 90 0 min 0 W/m -4,1 C -0,8 C 0,0 km/h (0 Bft)
23/02/2012 04:30 -0,6 C 78 % 1028,2 hPa 0,0 mm 0,0 km/h (0 Bft) S-SE 157 0 min 0 W/m -3,9 C -0,6 C 0,0 km/h (0 Bft)
23/02/2012 04:40 -0,5 C 78 % 1028,3 hPa 0,0 mm 0,0 km/h (0 Bft) S-SE 157 0 min 0 W/m -3,9 C -0,5 C 0,0 km/h (0 Bft)
23/02/2012 04:50 -0,5 C 78 % 1028,3 hPa 0,0 mm 0,0 km/h (0 Bft) E-SE 112 0 min 0 W/m -3,9 C -0,5 C 0,0 km/h (0 Bft)
23/02/2012 05:00 -0,5 C 78 % 1028,3 hPa 0,0 mm 0,0 km/h (0 Bft) E-SE 112 0 min 0 W/m -3,9 C -0,5 C 0,0 km/h (0 Bft)
23/02/2012 05:10 -0,2 C 78 % 1028,4 hPa 0,0 mm 0,0 km/h (0 Bft) S-SE 157 0 min 0 W/m -3,6 C -0,2 C 0,0 km/h (0 Bft)
23/02/2012 05:20 -0,2 C 78 % 1028,4 hPa 0,0 mm 0,0 km/h (0 Bft) S-SE 157 0 min 0 W/m -3,6 C -0,2 C 0,0 km/h (0 Bft)
23/02/2012 05:30 -0,1 C 78 % 1028,3 hPa 0,0 mm 0,0 km/h (0 Bft) S 180 0 min 0 W/m -3,5 C -0,1 C 0,0 km/h (0 Bft)
23/02/2012 05:40 0,1 C 78 % 1028,4 hPa 0,0 mm 0,0 km/h (0 Bft) S 180 0 min 0 W/m -3,3 C 0,1 C 0,0 km/h (0 Bft)
23/02/2012 05:50 0,2 C 78 % 1028,5 hPa 0,0 mm 0,0 km/h (0 Bft) S-SE 157 0 min 0 W/m -3,2 C 0,2 C 0,0 km/h (0 Bft)
23/02/2012 06:00 0,5 C 79 % 1028,6 hPa 0,0 mm 0,0 km/h (0 Bft) S-SE 157 0 min 0 W/m -2,7 C 0,5 C 0,0 km/h (0 Bft)
23/02/2012 06:10 0,8 C 78 % 1028,6 hPa 0,0 mm 0,0 km/h (0 Bft) S-SO 202 0 min 0 W/m -2,6 C 0,8 C 0,0 km/h (0 Bft)
23/02/2012 06:20 1,1 C 77 % 1028,6 hPa 0,0 mm 0,0 km/h (0 Bft) S-SO 202 0 min 0 W/m -2,5 C 1,1 C 0,0 km/h (0 Bft)
23/02/2012 06:30 1,4 C 76 % 1028,7 hPa 0,0 mm 0,0 km/h (0 Bft) S-SO 202 0 min 0 W/m -2,4 C 1,4 C 0,0 km/h (0 Bft)
23/02/2012 06:40 1,5 C 76 % 1028,7 hPa 0,0 mm 0,0 km/h (0 Bft) S-SO 202 0 min 0 W/m -2,3 C 1,5 C 0,0 km/h (0 Bft)
23/02/2012 06:50 1,6 C 76 % 1028,8 hPa 0,0 mm 0,0 km/h (0 Bft) S-SO 202 0 min 0 W/m -2,2 C 1,6 C 0,0 km/h (0 Bft)
23/02/2012 07:00 1,6 C 76 % 1028,6 hPa 0,0 mm 0,0 km/h (0 Bft) S-SO 202 0 min 0 W/m -2,2 C 1,6 C 0,0 km/h (0 Bft)
23/02/2012 07:10 1,8 C 76 % 1028,7 hPa 0,0 mm 0,0 km/h (0 Bft) S-SO 202 0 min 0 W/m -2,0 C 1,8 C 0,0 km/h (0 Bft)
23/02/2012 07:20 1,7 C 76 % 1028,7 hPa 0,0 mm 0,4 km/h (0 Bft) S-SO 202 0 min 0 W/m -2,1 C 1,7 C 0,4 km/h (0 Bft)
23/02/2012 07:30 1,8 C 76 % 1028,7 hPa 0,0 mm 0,0 km/h (0 Bft) S-SO 202 0 min 0 W/m -2,0 C 1,8 C 0,0 km/h (0 Bft)
23/02/2012 07:40 1,9 C 77 % 1028,7 hPa 0,0 mm 0,0 km/h (0 Bft) S-SO 202 0 min 0 W/m -1,7 C 1,9 C 0,0 km/h (0 Bft)
23/02/2012 07:50 2,3 C 77 % 1028,7 hPa 0,0 mm 0,0 km/h (0 Bft) S-SO 202 0 min 0 W/m -1,3 C 2,3 C 0,0 km/h (0 Bft)
23/02/2012 08:00 2,6 C 76 % 1028,9 hPa 0,0 mm 0,0 km/h (0 Bft) SO 225 2 min 0 W/m -1,2 C 2,6 C 0,0 km/h (0 Bft)
23/02/2012 08:10 2,8 C 75 % 1029,0 hPa 0,0 mm 0,0 km/h (0 Bft) SO 225 2 min 0 W/m -1,2 C 2,8 C 0,0 km/h (0 Bft)
23/02/2012 08:20 2,9 C 75 % 1029,1 hPa 0,0 mm 0,0 km/h (0 Bft) SO 225 2 min 0 W/m -1,1 C 2,9 C 0,0 km/h (0 Bft)
23/02/2012 08:30 2,8 C 75 % 1029,2 hPa 0,0 mm 0,0 km/h (0 Bft) N-NO 337 2 min 0 W/m -1,2 C 2,8 C 0,0 km/h (0 Bft)
23/02/2012 08:40 2,9 C 77 % 1029,3 hPa 0,0 mm 3,2 km/h (1 Bft) SO 225 2 min 0 W/m -0,7 C 2,9 C 6,1 km/h (2 Bft)
23/02/2012 08:50 3,1 C 80 % 1029,3 hPa 0,0 mm 1,8 km/h (1 Bft) S-SO 202 2 min 0 W/m -0,0 C 3,1 C 1,8 km/h (1 Bft)
23/02/2012 09:00 3,2 C 82 % 1029,3 hPa 0,0 mm 4,7 km/h (1 Bft) SO 225 2 min 0 W/m 0,4 C 2,2 C 9,0 km/h (2 Bft)
23/02/2012 09:10 3,4 C 85 % 1029,4 hPa 0,0 mm 1,8 km/h (1 Bft) O-SO 247 2 min 0 W/m 1,1 C 3,4 C 3,2 km/h (1 Bft)
23/02/2012 09:20 3,4 C 85 % 1029,4 hPa 0,0 mm 0,0 km/h (0 Bft) O-SO 247 2 min 0 W/m 1,1 C 3,4 C 0,0 km/h (0 Bft)
23/02/2012 09:30 3,6 C 87 % 1029,5 hPa 0,0 mm 4,3 km/h (1 Bft) SO 225 2 min 0 W/m 1,6 C 3,6 C 6,5 km/h (2 Bft)
23/02/2012 09:40 3,6 C 88 % 1029,7 hPa 0,0 mm 2,5 km/h (1 Bft) S 180 2 min 0 W/m 1,8 C 3,6 C 3,6 km/h (1 Bft)
23/02/2012 09:50 3,5 C 88 % 1029,7 hPa 0,0 mm 4,7 km/h (1 Bft) SO 225 2 min 0 W/m 1,7 C 2,5 C 4,7 km/h (1 Bft)
23/02/2012 10:00 3,5 C 89 % 1029,7 hPa 0,0 mm 0,0 km/h (0 Bft) S-SO 202 2 min 0 W/m 1,9 C 3,5 C 0,0 km/h (0 Bft)
23/02/2012 10:10 3,4 C 89 % 1029,8 hPa 0,0 mm 1,4 km/h (1 Bft) S-SO 202 2 min 0 W/m 1,8 C 3,4 C 4,0 km/h (1 Bft)
23/02/2012 10:20 3,5 C 90 % 1029,8 hPa 0,0 mm 0,0 km/h (0 Bft) SO 225 2 min 0 W/m 2,0 C 3,5 C 0,0 km/h (0 Bft)
23/02/2012 10:30 3,5 C 89 % 1029,9 hPa 0,0 mm 0,0 km/h (0 Bft) S-SO 202 2 min 0 W/m 1,9 C 3,5 C 0,0 km/h (0 Bft)
23/02/2012 10:40 3,6 C 90 % 1029,9 hPa 0,0 mm 0,4 km/h (0 Bft) SO 225 2 min 0 W/m 2,1 C 3,6 C 3,6 km/h (1 Bft)
23/02/2012 10:50 3,7 C 91 % 1030,0 hPa 0,0 mm 1,8 km/h (1 Bft) SO 225 2 min 0 W/m 2,4 C 3,7 C 2,9 km/h (1 Bft)
23/02/2012 11:00 3,8 C 91 % 1030,0 hPa 0,0 mm 3,2 km/h (1 Bft) S-SO 202 2 min 0 W/m 2,5 C 3,8 C 6,5 km/h (2 Bft)
23/02/2012 11:10 3,9 C 92 % 1030,0 hPa 0,0 mm 1,1 km/h (1 Bft) S-SO 202 2 min 0 W/m 2,7 C 3,9 C 4,0 km/h (1 Bft)
23/02/2012 11:20 4,1 C 92 % 1029,9 hPa 0,0 mm 2,9 km/h (1 Bft) S-SO 202 2 min 0 W/m 2,9 C 4,1 C 5,8 km/h (2 Bft)
23/02/2012 11:30 4,3 C 93 % 1030,0 hPa 0,0 mm 4,7 km/h (1 Bft) S-SO 202 2 min 0 W/m 3,3 C 3,4 C 4,7 km/h (1 Bft)
23/02/2012 11:40 4,4 C 93 % 1029,8 hPa 0,1 mm 5,0 km/h (1 Bft) SO 225 2 min 0 W/m 3,4 C 3,4 C 9,7 km/h (2 Bft)
23/02/2012 11:50 4,6 C 93 % 1029,9 hPa 0,0 mm 2,2 km/h (1 Bft) O-SO 247 2 min 0 W/m 3,6 C 4,6 C 9,4 km/h (2 Bft)
23/02/2012 12:00 4,8 C 93 % 1029,9 hPa 0,0 mm 5,4 km/h (2 Bft) SO 225 2 min 0 W/m 3,8 C 3,7 C 6,8 km/h (2 Bft)
23/02/2012 12:10 4,9 C 93 % 1030,0 hPa 0,0 mm 2,5 km/h (1 Bft) SO 225 2 min 0 W/m 3,9 C 4,9 C 6,8 km/h (2 Bft)
23/02/2012 12:20 4,9 C 93 % 1030,0 hPa 0,0 mm 2,2 km/h (1 Bft) SO 225 2 min 0 W/m 3,9 C 4,9 C 4,3 km/h (1 Bft)
23/02/2012 12:30 4,9 C 93 % 1029,9 hPa 0,0 mm 2,9 km/h (1 Bft) SO 225 2 min 0 W/m 3,9 C 4,9 C 4,0 km/h (1 Bft)
23/02/2012 12:40 5,2 C 93 % 1029,8 hPa 0,0 mm 8,3 km/h (2 Bft) S-SO 202 2 min 0 W/m 4,2 C 3,3 C 16,9 km/h (3 Bft)
23/02/2012 12:50 5,4 C 94 % 1029,6 hPa 0,0 mm 0,7 km/h (0 Bft) S-SO 202 2 min 0 W/m 4,5 C 5,4 C 3,2 km/h (1 Bft)
23/02/2012 13:00 5,6 C 94 % 1029,6 hPa 0,0 mm 1,8 km/h (1 Bft) SO 225 2 min 0 W/m 4,7 C 5,6 C 7,2 km/h (2 Bft)
23/02/2012 13:10 5,8 C 94 % 1029,5 hPa 0,0 mm 0,7 km/h (0 Bft) SO 225 2 min 0 W/m 4,9 C 5,8 C 3,6 km/h (1 Bft)
23/02/2012 13:20 5,9 C 94 % 1029,4 hPa 0,0 mm 3,2 km/h (1 Bft) O-SO 247 2 min 0 W/m 5,0 C 5,9 C 8,6 km/h (2 Bft)
23/02/2012 13:30 6,1 C 94 % 1029,2 hPa 0,0 mm 1,8 km/h (1 Bft) S-SO 202 2 min 0 W/m 5,2 C 6,1 C 6,1 km/h (2 Bft)
23/02/2012 13:40 6,2 C 93 % 1029,3 hPa 0,0 mm 3,2 km/h (1 Bft) SO 225 2 min 0 W/m 5,2 C 6,2 C 4,0 km/h (1 Bft)
23/02/2012 13:50 6,2 C 93 % 1029,4 hPa 0,0 mm 3,2 km/h (1 Bft) SO 225 2 min 0 W/m 5,2 C 6,2 C 6,5 km/h (2 Bft)
23/02/2012 14:00 6,3 C 93 % 1029,3 hPa 0,0 mm 4,7 km/h (1 Bft) S-SO 202 2 min 0 W/m 5,3 C 5,7 C 7,6 km/h (2 Bft)
23/02/2012 14:10 6,3 C 94 % 1029,3 hPa 0,0 mm 4,0 km/h (1 Bft) SO 225 2 min 0 W/m 5,4 C 6,3 C 6,8 km/h (2 Bft)
23/02/2012 14:20 6,4 C 94 % 1029,3 hPa 0,0 mm 0,0 km/h (0 Bft) SO 225 2 min 0 W/m 5,5 C 6,4 C 1,4 km/h (1 Bft)
23/02/2012 14:30 6,5 C 93 % 1029,3 hPa 0,0 mm 1,8 km/h (1 Bft) SO 225 2 min 0 W/m 5,5 C 6,5 C 4,3 km/h (1 Bft)
23/02/2012 14:40 6,6 C 94 % 1029,2 hPa 0,0 mm 8,3 km/h (2 Bft) SO 225 2 min 0 W/m 5,7 C 4,9 C 10,4 km/h (2 Bft)
23/02/2012 14:50 6,6 C 93 % 1029,2 hPa 0,0 mm 1,1 km/h (1 Bft) SO 225 2 min 0 W/m 5,6 C 6,6 C 6,5 km/h (2 Bft)
23/02/2012 15:00 6,8 C 94 % 1029,2 hPa 0,0 mm 1,8 km/h (1 Bft) SO 225 2 min 0 W/m 5,9 C 6,8 C 4,0 km/h (1 Bft)
23/02/2012 15:10 6,8 C 94 % 1029,2 hPa 0,0 mm 2,5 km/h (1 Bft) O-SO 247 2 min 0 W/m 5,9 C 6,8 C 4,0 km/h (1 Bft)
23/02/2012 15:20 6,8 C 94 % 1029,1 hPa 0,0 mm 6,1 km/h (2 Bft) SO 225 2 min 0 W/m 5,9 C 5,8 C 9,7 km/h (2 Bft)
23/02/2012 15:30 6,8 C 94 % 1029,2 hPa 0,0 mm 4,0 km/h (1 Bft) SO 225 2 min 0 W/m 5,9 C 6,8 C 4,0 km/h (1 Bft)
23/02/2012 15:40 6,8 C 94 % 1029,1 hPa 0,0 mm 2,2 km/h (1 Bft) S-SO 202 2 min 0 W/m 5,9 C 6,8 C 3,6 km/h (1 Bft)
23/02/2012 15:50 6,9 C 94 % 1029,2 hPa 0,0 mm 0,0 km/h (0 Bft) SO 225 2 min 0 W/m 6,0 C 6,9 C 3,2 km/h (1 Bft)
23/02/2012 16:00 6,9 C 94 % 1029,0 hPa 0,0 mm 1,4 km/h (1 Bft) SO 225 2 min 0 W/m 6,0 C 6,9 C 4,0 km/h (1 Bft)
23/02/2012 16:10 7,0 C 94 % 1029,0 hPa 0,0 mm 3,2 km/h (1 Bft) SO 225 2 min 0 W/m 6,1 C 7,0 C 4,3 km/h (1 Bft)
23/02/2012 16:20 7,1 C 94 % 1028,8 hPa 0,0 mm 2,9 km/h (1 Bft) O-SO 247 2 min 0 W/m 6,2 C 7,1 C 6,1 km/h (2 Bft)
23/02/2012 16:30 7,1 C 94 % 1028,7 hPa 0,0 mm 4,0 km/h (1 Bft) S-SO 202 2 min 0 W/m 6,2 C 7,1 C 4,0 km/h (1 Bft)
23/02/2012 16:40 7,3 C 94 % 1028,8 hPa 0,0 mm 3,6 km/h (1 Bft) S-SO 202 2 min 0 W/m 6,4 C 7,3 C 4,3 km/h (1 Bft)
23/02/2012 16:50 7,3 C 94 % 1028,8 hPa 0,0 mm 3,2 km/h (1 Bft) SO 225 2 min 0 W/m 6,4 C 7,3 C 3,2 km/h (1 Bft)
23/02/2012 17:00 7,3 C 94 % 1028,7 hPa 0,0 mm 3,6 km/h (1 Bft) O-SO 247 2 min 0 W/m 6,4 C 7,3 C 9,0 km/h (2 Bft)
23/02/2012 17:10 7,3 C 94 % 1028,6 hPa 0,0 mm 5,4 km/h (2 Bft) S-SO 202 2 min 0 W/m 6,4 C 6,6 C 8,3 km/h (2 Bft)
23/02/2012 17:20 7,2 C 94 % 1028,6 hPa 0,0 mm 4,0 km/h (1 Bft) O-SO 247 2 min 0 W/m 6,3 C 7,2 C 8,3 km/h (2 Bft)
23/02/2012 17:30 7,1 C 94 % 1028,6 hPa 0,0 mm 2,5 km/h (1 Bft) O-SO 247 2 min 0 W/m 6,2 C 7,1 C 4,3 km/h (1 Bft)
23/02/2012 17:40 7,1 C 94 % 1028,6 hPa 0,0 mm 0,0 km/h (0 Bft) SO 225 2 min 0 W/m 6,2 C 7,1 C 3,2 km/h (1 Bft)
23/02/2012 17:50 7,1 C 94 % 1028,7 hPa 0,0 mm 2,5 km/h (1 Bft) S-SO 202 2 min 0 W/m 6,2 C 7,1 C 3,6 km/h (1 Bft)
23/02/2012 18:00 7,0 C 94 % 1028,7 hPa 0,0 mm 1,4 km/h (1 Bft) SO 225 2 min 0 W/m 6,1 C 7,0 C 2,9 km/h (1 Bft)
23/02/2012 18:10 6,9 C 94 % 1028,7 hPa 0,0 mm 0,4 km/h (0 Bft) S-SO 202 2 min 0 W/m 6,0 C 6,9 C 0,4 km/h (0 Bft)
23/02/2012 18:20 6,9 C 94 % 1028,8 hPa 0,0 mm 0,7 km/h (0 Bft) SO 225 2 min 0 W/m 6,0 C 6,9 C 4,0 km/h (1 Bft)
23/02/2012 18:30 6,9 C 94 % 1028,7 hPa 0,0 mm 0,7 km/h (0 Bft) S-SO 202 0 min 0 W/m 6,0 C 6,9 C 2,9 km/h (1 Bft)
23/02/2012 18:40 6,9 C 94 % 1028,9 hPa 0,0 mm 0,0 km/h (0 Bft) SO 225 0 min 0 W/m 6,0 C 6,9 C 0,0 km/h (0 Bft)
23/02/2012 18:50 6,9 C 94 % 1029,0 hPa 0,0 mm 0,0 km/h (0 Bft) SO 225 0 min 0 W/m 6,0 C 6,9 C 0,0 km/h (0 Bft)
23/02/2012 19:00 6,9 C 94 % 1029,1 hPa 0,0 mm 0,0 km/h (0 Bft) SO 225 0 min 0 W/m 6,0 C 6,9 C 3,2 km/h (1 Bft)
23/02/2012 19:10 6,9 C 94 % 1029,2 hPa 0,0 mm 0,0 km/h (0 Bft) S-SO 202 0 min 0 W/m 6,0 C 6,9 C 0,0 km/h (0 Bft)
23/02/2012 19:20 6,9 C 94 % 1029,3 hPa 0,0 mm 0,0 km/h (0 Bft) O 270 0 min 0 W/m 6,0 C 6,9 C 0,0 km/h (0 Bft)
23/02/2012 19:30 6,9 C 94 % 1029,4 hPa 0,0 mm 0,0 km/h (0 Bft) SO 225 0 min 0 W/m 6,0 C 6,9 C 0,0 km/h (0 Bft)
23/02/2012 19:40 6,9 C 94 % 1029,5 hPa 0,0 mm 0,0 km/h (0 Bft) S-SO 202 0 min 0 W/m 6,0 C 6,9 C 0,0 km/h (0 Bft)
23/02/2012 19:50 6,9 C 94 % 1029,5 hPa 0,0 mm 0,0 km/h (0 Bft) SO 225 0 min 0 W/m 6,0 C 6,9 C 0,0 km/h (0 Bft)
23/02/2012 20:00 7,0 C 94 % 1029,6 hPa 0,0 mm 0,0 km/h (0 Bft) SO 225 0 min 0 W/m 6,1 C 7,0 C 0,0 km/h (0 Bft)
23/02/2012 20:10 7,1 C 94 % 1029,6 hPa 0,0 mm 0,4 km/h (0 Bft) O-SO 247 0 min 0 W/m 6,2 C 7,1 C 3,6 km/h (1 Bft)
23/02/2012 20:20 7,1 C 95 % 1029,5 hPa 0,0 mm 1,4 km/h (1 Bft) S-SO 202 0 min 0 W/m 6,4 C 7,1 C 4,3 km/h (1 Bft)
23/02/2012 20:30 7,1 C 95 % 1029,6 hPa 0,0 mm 0,4 km/h (0 Bft) SO 225 0 min 0 W/m 6,4 C 7,1 C 3,6 km/h (1 Bft)
23/02/2012 20:40 7,1 C 95 % 1029,6 hPa 0,1 mm 0,0 km/h (0 Bft) SO 225 0 min 0 W/m 6,4 C 7,1 C 0,0 km/h (0 Bft)
23/02/2012 20:50 7,1 C 95 % 1029,5 hPa 0,0 mm 0,0 km/h (0 Bft) O-SO 247 0 min 0 W/m 6,4 C 7,1 C 0,0 km/h (0 Bft)
23/02/2012 21:00 7,1 C 95 % 1029,6 hPa 0,0 mm 1,1 km/h (1 Bft) SO 225 0 min 0 W/m 6,4 C 7,1 C 4,3 km/h (1 Bft)
23/02/2012 21:10 7,2 C 95 % 1029,6 hPa 0,0 mm 2,5 km/h (1 Bft) S-SO 202 0 min 0 W/m 6,5 C 7,2 C 4,0 km/h (1 Bft)
23/02/2012 21:20 7,2 C 95 % 1029,8 hPa 0,0 mm 0,0 km/h (0 Bft) SO 225 0 min 0 W/m 6,5 C 7,2 C 0,0 km/h (0 Bft)
23/02/2012 21:30 7,2 C 95 % 1029,8 hPa 0,0 mm 0,0 km/h (0 Bft) S-SO 202 0 min 0 W/m 6,5 C 7,2 C 0,0 km/h (0 Bft)
23/02/2012 21:40 7,2 C 95 % 1029,8 hPa 0,0 mm 1,1 km/h (1 Bft) S 180 0 min 0 W/m 6,5 C 7,2 C 6,5 km/h (2 Bft)
23/02/2012 21:50 7,3 C 95 % 1029,9 hPa 0,0 mm 0,0 km/h (0 Bft) SO 225 0 min 0 W/m 6,6 C 7,3 C 0,0 km/h (0 Bft)
23/02/2012 22:00 7,3 C 95 % 1029,9 hPa 0,0 mm 1,4 km/h (1 Bft) SO 225 0 min 0 W/m 6,6 C 7,3 C 3,2 km/h (1 Bft)
23/02/2012 22:10 7,3 C 95 % 1029,8 hPa 0,0 mm 0,0 km/h (0 Bft) S-SO 202 0 min 0 W/m 6,6 C 7,3 C 0,0 km/h (0 Bft)
23/02/2012 22:20 7,3 C 95 % 1029,9 hPa 0,0 mm 1,1 km/h (1 Bft) SO 225 0 min 0 W/m 6,6 C 7,3 C 4,0 km/h (1 Bft)
23/02/2012 22:30 7,3 C 95 % 1029,8 hPa 0,0 mm 1,1 km/h (1 Bft) S-SO 202 0 min 0 W/m 6,6 C 7,3 C 2,9 km/h (1 Bft)
23/02/2012 22:40 7,3 C 95 % 1029,8 hPa 0,0 mm 0,7 km/h (0 Bft) S-SO 202 0 min 0 W/m 6,6 C 7,3 C 4,0 km/h (1 Bft)
23/02/2012 22:50 7,3 C 95 % 1029,8 hPa 0,0 mm 0,0 km/h (0 Bft) SO 225 0 min 0 W/m 6,6 C 7,3 C 1,4 km/h (1 Bft)
23/02/2012 23:00 7,3 C 95 % 1029,9 hPa 0,0 mm 0,0 km/h (0 Bft) S-SO 202 0 min 0 W/m 6,6 C 7,3 C 0,0 km/h (0 Bft)
23/02/2012 23:10 7,3 C 95 % 1029,8 hPa 0,0 mm 0,0 km/h (0 Bft) S-SO 202 0 min 0 W/m 6,6 C 7,3 C 0,0 km/h (0 Bft)
23/02/2012 23:20 7,3 C 95 % 1029,8 hPa 0,0 mm 0,4 km/h (0 Bft) S-SO 202 0 min 0 W/m 6,6 C 7,3 C 3,2 km/h (1 Bft)
23/02/2012 23:30 7,3 C 95 % 1029,8 hPa 0,0 mm 0,0 km/h (0 Bft) S-SO 202 0 min 0 W/m 6,6 C 7,3 C 0,0 km/h (0 Bft)
23/02/2012 23:40 7,3 C 95 % 1029,8 hPa 0,0 mm 0,0 km/h (0 Bft) SO 225 0 min 0 W/m 6,6 C 7,3 C 0,0 km/h (0 Bft)
23/02/2012 23:50 7,3 C 95 % 1029,7 hPa 0,0 mm 0,0 km/h (0 Bft) SO 225 0 min 0 W/m 6,6 C 7,3 C 0,0 km/h (0 Bft)
_ Min-Heure 03:40 00:40 04:30 - 23:50 - - - - 02:02 03:40 23:50
Minimum _ -1,4 C 70 % 1028,2 hPa - 0,0 km/h (0 Bft) - - - - -5,4 C -1,4 C 0,0 km/h (0 Bft)
_ Max-Heure 23:50 23:50 12:20 20:40 14:40 - - 18:20 23:50 23:50 23:50 12:40
Maximum _ 7,3 C 95 % 1030,0 hPa 0,1 mm 8,3 km/h
SO (2 Bft)
- - 2 min 0 W/m 6,6 C 7,3 C 16,9 km/h
S-SO (3 Bft)
Moyenne _ 4,0 C 87 % 1029,1 hPa #0,2 mm 1,2 km/h (1 Bft) SO - #2:06 h 0 W/m 1,9 C 3,9 C 2,4 km/h (1 Bft)
Saint Bonnet de Bellac- Haute Vienne - France